"startDT [UTC]","vpos","CH4 [ppm]","stdev(CH4) [ppm]","CO2 [ppm]","stdev(CO2) [ppm]","H2O_reported [%]","stdev(H2O_reported)","CavityPressure [torr]","CavityTemp [C]","OutletValve","CH4_dry [ppm]","CO2_dry [ppm]","DasTemp [C]","EtalonTemp [C]","WarmBoxTemp [C]","MPVPosition","T_ECpre [C]","T_EC1 [C]","T_EC2 [C]","p_inlet [hPa]","p_in [hPa]","p_out [hPa]","T_inlet [C]","RH_inlet [%]","dwpt_inlet [C]","T_vent [C]","RH_vent [%]","dwpt_vent [C]","flow_vent [l min-1]","flow_inlet [l min-1]","dwpt_sample [C]","T_room [C]"
2015-03-14 00:00:00,3.0,1.88332,0.02141,399.889,2.735,0.0639,0.0945,139.898,45.000,31108.95424,1.88750,400.429,32.756,45.068,45.000,0.00,0.09,-272.71,-272.76,-2,489,-2,21.5,7.8,-14.5,21.1,8.1,-14.3,5.73,1.93,-11.2,25.7
2015-03-14 00:01:00,3.0,1.87593,0.00041,397.358,0.054,0.0137,0.0016,139.997,45.000,30946.11584,1.87616,397.427,32.750,45.068,45.000,0.00,0.09,-272.71,-272.77,-2,490,-2,21.5,7.8,-14.5,21.1,8.1,-14.3,5.73,1.87,-11.2,25.7
2015-03-14 00:02:00,3.0,1.87549,0.00040,397.344,0.065,0.0138,0.0013,139.995,45.000,30893.04694,1.87574,397.407,32.750,45.068,45.000,0.00,0.09,-272.71,-272.77,-2,490,-2,21.5,7.8,-14.5,21.1,8.1,-14.3,5.73,1.87,-11.2,25.7
2015-03-14 00:03:00,3.0,1.87547,0.00033,397.518,0.053,0.0116,0.0019,139.998,45.000,30849.39524,1.87572,397.570,32.723,45.068,45.001,0.00,0.09,-272.70,-272.76,-1,490,-2,21.5,7.8,-14.4,21.2,8.1,-14.3,5.73,1.87,-11.2,25.7
2015-03-14 00:04:00,3.0,1.87540,0.00024,397.596,0.030,0.0098,0.0023,139.999,45.000,30816.78853,1.87554,397.643,32.696,45.068,45.001,0.00,0.09,-272.71,-272.76,-2,490,-2,21.6,7.8,-14.4,21.2,8.1,-14.2,5.73,1.87,-11.2,25.7
2015-03-14 00:05:00,3.0,1.87536,0.00034,397.572,0.033,0.0077,0.0019,139.995,45.000,30789.85237,1.87551,397.608,32.688,45.068,45.001,0.00,0.09,-272.71,-272.77,-2,490,-2,21.6,7.8,-14.4,21.2,8.1,-14.2,5.73,1.89,-11.2,25.7
2015-03-14 00:06:00,3.0,1.87560,0.00027,397.597,0.031,0.0059,0.0018,140.000,45.000,30767.94381,1.87571,397.627,32.689,45.069,45.001,0.00,0.09,-272.70,-272.77,-2,491,-2,21.6,7.8,-14.4,21.2,8.1,-14.3,5.73,1.90,-11.2,25.7
2015-03-14 00:07:00,3.0,1.87577,0.00024,397.597,0.032,0.0051,0.0023,140.000,45.000,30747.65626,1.87586,397.621,32.698,45.069,45.001,0.00,0.09,-272.70,-272.77,-2,491,-2,21.6,7.7,-14.5,21.2,8.0,-14.3,5.73,1.91,-11.2,25.7
2015-03-14 00:08:00,3.0,1.87583,0.00055,397.606,0.026,0.0038,0.0019,139.999,45.000,30732.61606,1.87590,397.623,32.718,45.069,45.000,0.00,0.09,-272.71,-272.77,-2,491,-2,21.6,7.7,-14.5,21.2,8.0,-14.3,5.73,1.92,-11.2,25.8
2015-03-14 00:09:00,3.0,1.87580,0.00042,397.613,0.040,0.0025,0.0018,139.998,45.000,30719.45358,1.87583,397.624,32.713,45.068,45.000,0.00,0.09,-272.71,-272.77,-2,492,-2,21.6,7.7,-14.5,21.2,8.0,-14.3,5.73,1.92,-11.2,25.7
2015-03-14 00:10:00,3.0,1.87598,0.00039,397.639,0.027,0.0027,0.0016,140.000,45.000,30709.26877,1.87607,397.652,32.696,45.068,45.000,0.00,0.09,-272.70,-272.76,-2,492,-2,21.6,7.7,-14.5,21.3,8.0,-14.4,5.73,1.92,-11.2,25.8
2015-03-14 00:11:00,3.0,1.87589,0.00035,397.633,0.031,0.0027,0.0023,139.999,45.000,30702.47117,1.87589,397.645,32.700,45.068,45.000,0.00,0.09,-272.70,-272.77,-2,493,-2,21.7,7.7,-14.5,21.3,7.9,-14.4,5.73,1.92,-11.2,25.8
2015-03-14 00:12:00,3.0,1.87570,0.00023,397.642,0.029,0.0023,0.0023,140.001,45.000,30696.06970,1.87576,397.654,32.704,45.068,45.000,0.00,0.09,-272.71,-272.77,-2,493,-2,21.7,7.7,-14.5,21.3,7.9,-14.4,5.73,1.91,-11.2,25.7
2015-03-14 00:13:00,3.0,1.87576,0.00037,397.652,0.032,0.0009,0.0025,139.998,45.000,30690.91020,1.87572,397.654,32.716,45.068,45.000,0.00,0.09,-272.71,-272.76,-2,493,-2,21.7,7.7,-14.5,21.3,7.9,-14.4,5.73,1.90,-11.2,25.8
2015-03-14 00:14:00,3.0,1.87575,0.00042,397.620,0.030,0.0015,0.0019,139.999,45.000,30688.34264,1.87584,397.629,32.705,45.068,45.000,0.00,0.09,-272.71,-272.76,-2,494,-2,21.7,7.6,-14.5,21.3,7.9,-14.4,5.73,1.89,-11.2,25.8
2015-03-14 00:15:00,3.0,1.87574,0.00042,397.641,0.028,0.0011,0.0022,140.000,45.000,30686.44675,1.87574,397.646,32.693,45.068,45.000,0.00,0.09,-272.72,-272.77,-2,494,-2,21.7,7.6,-14.5,21.3,7.9,-14.4,5.73,1.89,-11.2,25.8
2015-03-14 00:16:00,3.0,1.87577,0.00026,397.633,0.033,0.0007,0.0027,139.999,45.000,30684.92335,1.87581,397.638,32.690,45.068,45.000,0.00,0.09,-272.70,-272.76,-2,495,-2,21.7,7.7,-14.5,21.3,8.0,-14.3,5.73,1.89,-11.2,25.9
2015-03-14 00:17:00,3.0,1.87559,0.00048,397.624,0.023,0.0005,0.0017,140.000,45.000,30685.64959,1.87559,397.625,32.703,45.068,45.000,0.00,0.09,-272.70,-272.76,-2,495,-2,21.7,7.7,-14.4,21.4,8.0,-14.2,5.73,1.89,-11.2,25.8
2015-03-14 00:18:00,3.0,1.87566,0.00025,397.630,0.026,0.0002,0.0018,140.003,45.000,30685.27082,1.87566,397.632,32.708,45.068,45.000,0.00,0.09,-272.71,-272.76,-2,496,-2,21.7,7.7,-14.5,21.4,8.0,-14.3,5.73,1.89,-11.2,25.9
2015-03-14 00:19:00,3.0,1.87585,0.00035,397.641,0.033,0.0011,0.0022,140.002,45.000,30683.39858,1.87589,397.646,32.703,45.068,45.000,0.00,0.09,-272.71,-272.77,-2,496,-2,21.8,7.6,-14.5,21.4,7.9,-14.3,5.73,1.88,-11.2,25.9
2015-03-14 00:20:00,0.0,1.93026,0.02025,404.777,2.449,0.2254,0.0875,140.227,45.000,33562.44739,1.93172,405.663,32.693,45.068,45.000,0.00,0.09,-272.70,-272.77,-2,969,-2,21.8,7.7,-14.4,21.4,8.0,-14.3,5.73,1.94,-11.2,25.9
2015-03-14 00:21:00,0.0,1.93724,0.00051,405.783,0.030,0.2680,0.0016,140.006,45.000,33788.57972,1.94241,407.101,32.691,45.068,45.000,0.00,0.09,-272.70,-272.77,-3,970,-2,21.8,7.7,-14.4,21.4,8.0,-14.2,5.73,1.92,-11.1,25.9
2015-03-14 00:22:00,0.0,1.93678,0.00075,405.765,0.021,0.2679,0.0017,140.005,45.000,33846.52256,1.94195,407.082,32.688,45.068,45.000,0.00,0.09,-272.71,-272.77,-3,972,-2,21.8,7.7,-14.4,21.4,8.0,-14.2,5.73,1.94,-11.2,25.9
2015-03-14 00:23:00,0.0,1.93642,0.00042,405.753,0.031,0.2679,0.0013,140.002,45.000,33892.78159,1.94154,407.069,32.688,45.068,45.000,0.00,0.09,-272.70,-272.76,-2,971,-2,21.8,7.7,-14.5,21.4,7.9,-14.3,5.73,1.96,-11.1,25.9
2015-03-14 00:24:00,0.0,1.93632,0.00043,405.741,0.041,0.2676,0.0015,140.004,45.000,33928.67672,1.94144,407.057,32.686,45.068,45.000,0.00,0.09,-272.71,-272.77,-3,971,-2,21.8,7.6,-14.5,21.5,7.9,-14.3,5.73,1.96,-11.1,25.9
2015-03-14 00:25:00,0.0,1.93554,0.00058,405.711,0.028,0.2679,0.0014,140.000,45.000,33957.79080,1.94070,407.027,32.687,45.068,45.000,0.00,0.09,-272.71,-272.77,-3,972,-2,21.8,7.6,-14.5,21.5,7.9,-14.3,5.73,1.95,-11.1,25.9
2015-03-14 00:26:00,0.0,1.93643,0.00081,405.753,0.056,0.2681,0.0014,140.003,45.000,33982.13985,1.94151,407.070,32.688,45.068,45.000,0.00,0.09,-272.71,-272.76,-3,972,-2,21.8,7.6,-14.5,21.5,7.9,-14.3,5.73,1.92,-11.2,25.9
2015-03-14 00:27:00,0.0,1.93671,0.00120,405.760,0.053,0.2683,0.0017,140.000,45.000,34004.78778,1.94193,407.078,32.691,45.068,45.000,0.00,0.09,-272.71,-272.76,-2,971,-2,21.8,7.6,-14.5,21.5,7.9,-14.4,5.73,1.90,-11.2,25.9
2015-03-14 00:28:00,0.0,1.93639,0.00084,405.741,0.040,0.2696,0.0018,139.998,45.000,34021.35646,1.94156,407.066,32.691,45.068,45.000,0.00,0.09,-272.71,-272.76,-3,971,-2,21.8,7.7,-14.4,21.5,7.9,-14.3,5.73,1.89,-11.1,25.9
2015-03-14 00:29:00,0.0,1.93640,0.00072,405.749,0.026,0.2686,0.0015,140.000,45.000,34038.09075,1.94152,407.069,32.690,45.068,45.000,0.00,0.09,-272.71,-272.77,-3,973,-2,21.8,7.6,-14.5,21.5,7.9,-14.3,5.73,1.90,-11.1,25.9
2015-03-14 00:30:00,0.0,1.93638,0.00056,405.744,0.032,0.2695,0.0014,140.000,45.000,34051.71979,1.94163,407.068,32.688,45.068,45.000,0.00,0.09,-272.70,-272.76,-2,972,-2,21.9,7.6,-14.5,21.5,7.9,-14.3,5.73,1.91,-11.1,25.9
2015-03-14 00:31:00,0.0,1.93616,0.00061,405.742,0.025,0.2690,0.0019,140.002,45.000,34062.72457,1.94125,407.063,32.680,45.068,45.000,0.00,0.09,-272.71,-272.77,-3,973,-2,21.9,7.6,-14.5,21.5,7.9,-14.3,5.73,1.93,-11.1,25.8
2015-03-14 00:32:00,0.0,1.93640,0.00077,405.726,0.038,0.2685,0.0013,140.003,45.000,34075.42793,1.94163,407.047,32.645,45.068,45.000,0.00,0.09,-272.71,-272.76,-3,973,-2,21.9,7.6,-14.5,21.5,7.9,-14.3,5.73,1.92,-11.1,25.7
2015-03-14 00:33:00,0.0,1.93583,0.00087,405.731,0.045,0.2689,0.0016,140.001,45.000,34085.77917,1.94097,407.051,32.610,45.068,45.000,0.00,0.09,-272.70,-272.76,-3,974,-2,21.9,7.6,-14.5,21.5,7.9,-14.3,5.73,1.92,-11.1,25.7
2015-03-14 00:34:00,0.0,1.93606,0.00046,405.704,0.034,0.2687,0.0014,139.999,44.999,34094.66249,1.94119,407.025,32.536,45.067,44.999,0.00,0.09,-272.71,-272.76,-3,975,-2,21.9,7.6,-14.5,21.5,7.9,-14.3,5.73,1.93,-11.1,25.6
2015-03-14 00:35:00,0.0,1.93541,0.00064,405.677,0.054,0.2685,0.0020,140.004,44.999,34103.12232,1.94059,407.000,32.438,45.067,44.999,0.00,0.09,-272.71,-272.77,-3,976,-2,21.9,7.6,-14.5,21.5,7.8,-14.4,5.73,1.94,-11.1,25.6
2015-03-14 00:36:00,0.0,1.93519,0.00047,405.672,0.029,0.2684,0.0014,140.001,44.999,34108.90796,1.94033,406.989,32.331,45.067,45.000,0.00,0.09,-272.71,-272.76,-4,976,-2,21.9,7.6,-14.5,21.5,7.8,-14.4,5.73,1.95,-11.1,25.6
2015-03-14 00:37:00,0.0,1.93610,0.00058,405.710,0.034,0.2680,0.0019,140.001,44.999,34113.04335,1.94125,407.026,32.223,45.068,45.000,0.00,0.09,-272.71,-272.76,-4,977,-2,21.9,7.6,-14.6,21.5,7.8,-14.4,5.73,1.95,-11.1,25.6
2015-03-14 00:38:00,0.0,1.93637,0.00043,405.740,0.042,0.2683,0.0016,140.001,44.999,34113.90179,1.94146,407.059,32.143,45.068,45.000,0.00,0.09,-272.71,-272.77,-4,977,-2,21.9,7.6,-14.6,21.5,7.8,-14.4,5.73,1.95,-11.1,25.8
2015-03-14 00:39:00,0.0,1.93807,0.00138,405.786,0.050,0.2689,0.0017,139.997,44.999,34113.70257,1.94311,407.104,32.068,45.068,45.000,0.00,0.09,-272.71,-272.77,-4,978,-2,21.9,7.6,-14.5,21.5,7.8,-14.4,5.73,1.95,-11.1,25.9
2015-03-14 00:40:00,0.0,1.93783,0.00095,405.792,0.042,0.2702,0.0029,140.001,44.999,34116.43821,1.94318,407.120,32.002,45.069,45.001,0.00,0.09,-272.71,-272.76,-4,978,-2,21.9,7.6,-14.5,21.5,7.9,-14.3,5.73,1.93,-11.1,25.9
2015-03-14 00:41:00,0.0,1.93771,0.00084,405.769,0.043,0.2714,0.0016,140.002,44.999,34120.90091,1.94283,407.103,31.949,45.069,45.001,0.00,0.09,-272.71,-272.77,-4,978,-2,21.9,7.6,-14.4,21.5,7.9,-14.3,5.73,1.91,-11.1,25.9
2015-03-14 00:42:00,0.0,1.93794,0.00088,405.775,0.031,0.2701,0.0019,139.998,44.999,34119.74931,1.94317,407.102,31.889,45.069,45.001,0.00,0.09,-272.71,-272.77,-4,978,-2,21.9,7.6,-14.5,21.5,7.9,-14.3,5.73,1.90,-11.1,25.9
2015-03-14 00:43:00,0.0,1.93834,0.00043,405.788,0.040,0.2714,0.0015,140.000,44.999,34121.72749,1.94350,407.122,31.850,45.069,45.000,0.00,0.09,-272.71,-272.76,-4,979,-2,21.8,7.6,-14.5,21.5,7.9,-14.3,5.73,1.89,-11.1,25.9
2015-03-14 00:44:00,0.0,1.93702,0.00082,405.741,0.033,0.2709,0.0015,139.998,44.999,34119.27830,1.94232,407.074,31.812,45.068,45.000,0.00,0.09,-272.70,-272.76,-4,979,-2,21.8,7.6,-14.5,21.5,7.9,-14.3,5.73,1.90,-11.1,26.0
2015-03-14 00:45:00,0.0,1.93686,0.00041,405.729,0.033,0.2686,0.0022,139.998,44.999,34120.39327,1.94201,407.049,31.766,45.068,45.000,0.00,0.09,-272.71,-272.77,-4,978,-2,21.8,7.6,-14.6,21.5,7.9,-14.4,5.73,1.91,-11.2,26.0
2015-03-14 00:46:00,0.0,1.93741,0.00076,405.757,0.048,0.2682,0.0017,139.997,44.999,34120.68539,1.94252,407.074,31.748,45.068,45.000,0.00,0.09,-272.71,-272.77,-4,979,-2,21.8,7.6,-14.6,21.5,7.8,-14.4,5.73,1.93,-11.1,26.0
2015-03-14 00:47:00,0.0,1.93747,0.00042,405.758,0.035,0.2688,0.0022,139.996,44.999,34119.32886,1.94265,407.080,31.748,45.068,45.000,0.00,0.09,-272.70,-272.76,-4,979,-2,21.8,7.6,-14.6,21.5,7.8,-14.4,5.73,1.95,-11.2,26.0
2015-03-14 00:48:00,0.0,1.93715,0.00030,405.737,0.050,0.2695,0.0017,139.998,44.999,34118.42025,1.94233,407.061,31.750,45.068,45.000,0.00,0.09,-272.71,-272.77,-3,978,-2,21.8,7.6,-14.5,21.5,7.9,-14.4,5.73,1.94,-11.2,25.9
2015-03-14 00:49:00,0.0,1.93730,0.00042,405.720,0.034,0.2687,0.0018,139.997,45.000,34119.31995,1.94241,407.040,31.772,45.068,45.000,0.00,0.09,-272.70,-272.77,-3,978,-2,21.8,7.6,-14.6,21.5,7.8,-14.4,5.73,1.94,-11.2,25.9
2015-03-14 00:50:00,0.0,1.93764,0.00043,405.733,0.033,0.2700,0.0012,140.000,45.000,34117.51567,1.94283,407.057,31.833,45.068,45.000,0.00,0.09,-272.70,-272.77,-3,977,-2,21.7,7.6,-14.5,21.4,7.9,-14.4,5.73,1.93,-11.1,25.9
2015-03-14 00:51:00,0.0,1.93747,0.00040,405.752,0.032,0.2698,0.0019,140.004,45.000,34117.81775,1.94265,407.080,31.920,45.068,45.000,0.00,0.09,-272.71,-272.77,-3,977,-2,21.8,7.6,-14.5,21.4,7.9,-14.4,5.73,1.91,-11.2,25.9
2015-03-14 00:52:00,0.0,1.93806,0.00047,405.737,0.040,0.2706,0.0016,140.002,45.001,34117.41256,1.94321,407.066,32.013,45.068,45.000,0.00,0.09,-272.71,-272.77,-3,976,-2,21.7,7.7,-14.5,21.4,7.9,-14.4,5.73,1.92,-11.2,25.9
2015-03-14 00:53:00,0.0,1.93831,0.00040,405.748,0.028,0.2704,0.0018,140.001,45.001,34118.83234,1.94352,407.078,32.098,45.068,44.999,0.00,0.09,-272.71,-272.77,-3,976,-2,21.7,7.7,-14.5,21.4,7.9,-14.4,5.73,1.92,-11.2,25.9
2015-03-14 00:54:00,0.0,1.93777,0.00047,405.756,0.032,0.2700,0.0014,139.998,45.001,34117.23038,1.94298,407.084,32.186,45.067,44.999,0.00,0.09,-272.70,-272.76,-3,975,-2,21.7,7.7,-14.5,21.4,7.9,-14.4,5.73,1.94,-11.2,25.9
2015-03-14 00:55:00,0.0,1.93852,0.00050,405.767,0.037,0.2691,0.0017,139.999,45.001,34115.45492,1.94366,407.089,32.274,45.067,44.999,0.00,0.09,-272.71,-272.77,-3,974,-2,21.7,7.6,-14.5,21.4,7.9,-14.4,5.73,1.96,-11.2,25.8
2015-03-14 00:56:00,0.0,1.93830,0.00048,405.750,0.030,0.2699,0.0013,139.999,45.001,34116.88371,1.94346,407.076,32.342,45.067,44.999,0.00,0.09,-272.71,-272.77,-3,974,-2,21.7,7.7,-14.5,21.4,7.9,-14.4,5.73,1.97,-11.2,25.8
2015-03-14 00:57:00,0.0,1.93822,0.00039,405.756,0.031,0.2703,0.0012,140.002,45.001,34116.77252,1.94343,407.083,32.375,45.067,44.999,0.00,0.09,-272.71,-272.77,-3,974,-2,21.7,7.7,-14.5,21.4,7.9,-14.4,5.73,1.95,-11.2,25.7
2015-03-14 00:58:00,0.0,1.93805,0.00041,405.762,0.037,0.2698,0.0022,140.002,45.001,34115.53476,1.94323,407.088,32.413,45.067,44.999,0.00,0.09,-272.71,-272.76,-2,974,-2,21.7,7.7,-14.5,21.4,7.9,-14.4,5.73,1.92,-11.2,25.8
2015-03-14 00:59:00,0.0,1.93902,0.00052,405.790,0.034,0.2692,0.0014,139.999,45.001,34115.02964,1.94414,407.111,32.437,45.067,44.999,0.00,0.09,-272.71,-272.77,-2,973,-2,21.7,7.7,-14.6,21.4,7.9,-14.4,5.73,1.90,-11.2,25.7
2015-03-14 01:00:00,0.0,1.93874,0.00057,405.780,0.026,0.2711,0.0018,140.002,45.001,34116.48806,1.94401,407.114,32.438,45.067,45.000,0.00,0.09,-272.71,-272.76,-3,973,-2,21.7,7.7,-14.5,21.4,7.9,-14.4,5.73,1.89,-11.2,25.8
2015-03-14 01:01:00,0.0,1.93860,0.00051,405.766,0.044,0.2711,0.0023,140.001,45.001,34115.02170,1.94378,407.099,32.443,45.068,45.000,0.00,0.09,-272.70,-272.76,-2,973,-2,21.7,7.7,-14.5,21.4,7.9,-14.4,5.73,1.89,-11.2,25.8
2015-03-14 01:02:00,0.0,1.93870,0.00040,405.771,0.034,0.2714,0.0022,139.997,45.000,34115.58101,1.94391,407.103,32.462,45.068,45.000,0.00,0.09,-272.71,-272.77,-2,972,-2,21.7,7.7,-14.5,21.4,7.9,-14.4,5.73,1.92,-11.2,25.7
2015-03-14 01:03:00,0.0,1.93918,0.00043,405.785,0.025,0.2710,0.0021,140.001,45.000,34114.81224,1.94436,407.117,32.473,45.068,45.001,0.00,0.09,-272.71,-272.77,-3,972,-2,21.7,7.7,-14.5,21.4,7.9,-14.4,5.73,1.95,-11.2,25.7
2015-03-14 01:04:00,0.0,1.93962,0.00032,405.791,0.021,0.2702,0.0017,140.000,45.000,34111.47283,1.94482,407.120,32.487,45.068,45.000,0.00,0.09,-272.70,-272.77,-3,973,-2,21.7,7.7,-14.5,21.3,7.9,-14.4,5.73,1.96,-11.2,25.7
2015-03-14 01:05:00,0.0,1.93956,0.00059,405.762,0.037,0.2711,0.0017,139.999,45.000,34109.12249,1.94476,407.093,32.498,45.069,45.001,0.00,0.09,-272.71,-272.77,-2,973,-2,21.7,7.7,-14.5,21.3,7.9,-14.4,5.73,1.96,-11.2,25.8
2015-03-14 01:06:00,0.0,1.93968,0.00042,405.802,0.027,0.2706,0.0019,139.997,45.001,34107.33408,1.94486,407.132,32.500,45.068,45.000,0.00,0.09,-272.71,-272.77,-2,972,-2,21.7,7.7,-14.5,21.3,7.9,-14.4,5.73,1.95,-11.2,25.8
2015-03-14 01:07:00,0.0,1.93986,0.00042,405.791,0.028,0.2708,0.0015,140.001,45.000,34109.82996,1.94511,407.121,32.501,45.069,45.001,0.00,0.09,-272.70,-272.76,-2,971,-2,21.6,7.7,-14.5,21.3,7.9,-14.4,5.73,1.91,-11.2,25.7
2015-03-14 01:08:00,0.0,1.93963,0.00041,405.793,0.032,0.2701,0.0016,139.999,45.000,34107.19658,1.94480,407.123,32.522,45.068,45.000,0.00,0.09,-272.71,-272.76,-3,971,-2,21.7,7.7,-14.5,21.3,7.9,-14.4,5.73,1.89,-11.1,25.8
2015-03-14 01:09:00,0.0,1.93976,0.00047,405.794,0.048,0.2712,0.0020,140.000,45.000,34106.59534,1.94496,407.125,32.513,45.069,45.001,0.00,0.09,-272.72,-272.77,-3,972,-2,21.7,7.7,-14.5,21.3,7.9,-14.4,5.73,1.88,-11.1,25.7
2015-03-14 01:10:00,0.0,1.93956,0.00041,405.790,0.046,0.2698,0.0013,140.001,45.000,34106.42694,1.94474,407.116,32.514,45.068,45.001,0.00,0.09,-272.71,-272.76,-3,972,-2,21.6,7.7,-14.5,21.3,7.9,-14.4,5.73,1.91,-11.2,25.7
2015-03-14 01:11:00,0.0,1.93963,0.00044,405.805,0.036,0.2704,0.0019,140.000,45.000,34105.84112,1.94490,407.133,32.512,45.068,45.000,0.00,0.09,-272.70,-272.76,-2,972,-2,21.6,7.7,-14.6,21.3,7.9,-14.4,5.73,1.95,-11.1,25.7
2015-03-14 01:12:00,0.0,1.93954,0.00043,405.807,0.027,0.2700,0.0018,139.999,45.000,34104.36680,1.94467,407.135,32.503,45.068,45.000,0.00,0.09,-272.71,-272.77,-2,971,-2,21.6,7.7,-14.6,21.3,7.9,-14.4,5.73,1.96,-11.1,25.7
2015-03-14 01:13:00,0.0,1.94023,0.00046,405.839,0.036,0.2702,0.0018,139.998,45.000,34103.64000,1.94543,407.166,32.501,45.068,45.001,0.00,0.09,-272.71,-272.77,-2,971,-2,21.6,7.7,-14.5,21.3,7.9,-14.4,5.73,1.95,-11.2,25.6
2015-03-14 01:14:00,0.0,1.94036,0.00078,405.856,0.056,0.2718,0.0020,140.000,45.000,34104.26316,1.94557,407.191,32.500,45.068,45.000,0.00,0.09,-272.70,-272.77,-3,970,-2,21.6,7.7,-14.5,21.3,8.0,-14.3,5.73,1.91,-11.2,25.7
2015-03-14 01:15:00,0.0,1.94075,0.00036,405.882,0.041,0.2719,0.0015,140.003,45.000,34102.73242,1.94597,407.220,32.503,45.068,45.001,0.00,0.09,-272.71,-272.77,-3,972,-2,21.6,7.7,-14.5,21.3,8.0,-14.3,5.73,1.87,-11.1,25.7
2015-03-14 01:16:00,0.0,1.94098,0.00044,405.863,0.034,0.2726,0.0014,140.004,45.000,34100.03317,1.94621,407.202,32.507,45.068,45.000,0.00,0.09,-272.71,-272.77,-3,971,-2,21.6,7.7,-14.5,21.3,8.0,-14.4,5.73,1.89,-11.1,25.7
2015-03-14 01:17:00,0.0,1.94068,0.00038,405.859,0.025,0.2714,0.0017,139.999,45.000,34098.54114,1.94595,407.194,32.526,45.068,45.000,0.00,0.09,-272.71,-272.76,-3,972,-2,21.6,7.7,-14.5,21.3,8.0,-14.3,5.73,1.92,-11.1,25.7
2015-03-14 01:18:00,0.0,1.94090,0.00057,405.904,0.037,0.2719,0.0017,140.001,45.000,34098.80130,1.94610,407.239,32.558,45.068,45.000,0.00,0.09,-272.71,-272.77,-3,972,-2,21.6,7.7,-14.5,21.3,8.0,-14.3,5.73,1.97,-11.1,25.7
2015-03-14 01:19:00,0.0,1.94091,0.00045,405.881,0.029,0.2727,0.0014,140.000,45.000,34097.60395,1.94610,407.223,32.564,45.068,45.000,0.00,0.09,-272.71,-272.78,-3,972,-2,21.6,7.8,-14.5,21.3,8.0,-14.3,5.73,1.96,-11.1,25.8
2015-03-14 01:20:00,0.0,1.94090,0.00037,405.888,0.036,0.2722,0.0025,140.000,45.000,34097.90843,1.94621,407.227,32.563,45.068,45.000,0.00,0.09,-272.71,-272.77,-2,971,-2,21.6,7.8,-14.5,21.3,8.0,-14.3,5.73,1.92,-11.1,25.8
2015-03-14 01:21:00,0.0,1.94078,0.00039,405.846,0.036,0.2723,0.0017,140.002,45.000,34098.36906,1.94597,407.185,32.566,45.068,45.000,0.00,0.09,-272.71,-272.76,-2,971,-2,21.6,7.7,-14.5,21.3,8.0,-14.3,5.73,1.87,-11.1,25.7
2015-03-14 01:22:00,0.0,1.94109,0.00041,405.865,0.035,0.2718,0.0019,140.000,45.000,34098.92042,1.94628,407.201,32.563,45.068,45.000,0.00,0.09,-272.71,-272.76,-2,971,-2,21.6,7.7,-14.5,21.3,8.0,-14.4,5.73,1.88,-11.1,25.7
2015-03-14 01:23:00,0.0,1.94117,0.00045,405.859,0.035,0.2732,0.0014,140.001,45.000,34095.84372,1.94648,407.203,32.563,45.068,45.000,0.00,0.09,-272.72,-272.77,-2,970,-2,21.6,7.8,-14.4,21.3,8.0,-14.3,5.73,1.92,-11.1,25.7
2015-03-14 01:24:00,0.0,1.94094,0.00044,405.842,0.040,0.2724,0.0017,139.998,45.000,34095.75191,1.94620,407.179,32.563,45.068,45.000,0.00,0.09,-272.71,-272.76,-2,971,-2,21.6,7.8,-14.5,21.3,8.0,-14.3,5.73,1.97,-11.1,25.7
2015-03-14 01:25:00,0.0,1.94088,0.00042,405.818,0.037,0.2722,0.0014,140.002,45.000,34098.41251,1.94606,407.158,32.564,45.068,45.000,0.00,0.09,-272.71,-272.77,-2,970,-2,21.6,7.7,-14.5,21.2,8.0,-14.3,5.73,1.96,-11.1,25.7
2015-03-14 01:26:00,0.0,1.94095,0.00017,405.808,0.027,0.2726,0.0017,140.001,45.000,34097.48596,1.94624,407.146,32.563,45.068,45.000,0.00,0.09,-272.71,-272.77,-2,970,-2,21.6,7.7,-14.5,21.2,8.0,-14.4,5.73,1.91,-11.1,25.6
2015-03-14 01:27:00,0.0,1.94089,0.00030,405.836,0.024,0.2719,0.0014,140.002,45.000,34099.53589,1.94609,407.174,32.561,45.068,45.000,0.00,0.09,-272.70,-272.76,-2,970,-2,21.6,7.8,-14.5,21.2,8.0,-14.4,5.73,1.87,-11.1,25.6
2015-03-14 01:28:00,0.0,1.94118,0.00050,405.821,0.031,0.2720,0.0017,140.002,45.000,34098.85111,1.94642,407.157,32.554,45.068,45.000,0.00,0.09,-272.71,-272.77,-2,970,-2,21.6,7.7,-14.5,21.2,8.0,-14.4,5.73,1.88,-11.1,25.7
2015-03-14 01:29:00,0.0,1.94094,0.00029,405.844,0.031,0.2735,0.0021,140.003,45.000,34098.43611,1.94621,407.189,32.541,45.068,45.000,0.00,0.09,-272.71,-272.78,-2,970,-2,21.6,7.8,-14.4,21.2,8.0,-14.3,5.73,1.93,-11.1,25.7
2015-03-14 01:30:00,0.0,1.94100,0.00042,405.851,0.025,0.2721,0.0017,140.002,45.000,34096.36533,1.94624,407.189,32.518,45.068,45.000,0.00,0.09,-272.71,-272.77,-3,970,-2,21.6,7.8,-14.5,21.2,8.0,-14.4,5.73,1.97,-11.1,25.6
2015-03-14 01:31:00,0.0,1.94100,0.00044,405.847,0.036,0.2726,0.0015,140.005,45.000,34097.07161,1.94621,407.186,32.516,45.068,45.001,0.00,0.09,-272.70,-272.77,-3,971,-2,21.6,7.8,-14.4,21.2,8.0,-14.4,5.73,1.97,-11.1,25.7
2015-03-14 01:32:00,0.0,1.94128,0.00036,405.865,0.038,0.2721,0.0015,139.999,45.000,34095.16406,1.94653,407.204,32.541,45.068,45.000,0.00,0.09,-272.71,-272.77,-3,971,-2,21.6,7.8,-14.5,21.2,8.0,-14.4,5.73,1.93,-11.1,25.7
2015-03-14 01:33:00,0.0,1.94102,0.00035,405.838,0.027,0.2719,0.0016,140.004,45.000,34097.08175,1.94629,407.175,32.563,45.068,45.000,0.00,0.09,-272.71,-272.77,-2,972,-2,21.6,7.8,-14.4,21.2,8.0,-14.4,5.73,1.89,-11.1,25.7
2015-03-14 01:34:00,0.0,1.94109,0.00042,405.823,0.022,0.2708,0.0017,140.001,45.000,34095.43786,1.94628,407.154,32.564,45.068,45.000,0.00,0.09,-272.71,-272.76,-2,971,-2,21.6,7.8,-14.5,21.2,8.0,-14.4,5.73,1.86,-11.1,25.7
2015-03-14 01:35:00,0.0,1.94099,0.00041,405.836,0.024,0.2717,0.0015,139.998,45.000,34094.37226,1.94621,407.171,32.570,45.068,45.000,0.00,0.09,-272.70,-272.76,-2,971,-2,21.6,7.8,-14.5,21.2,8.0,-14.4,5.73,1.90,-11.1,25.7
2015-03-14 01:36:00,0.0,1.94189,0.00040,405.853,0.026,0.2730,0.0016,139.999,45.000,34092.50378,1.94710,407.194,32.565,45.068,45.000,0.00,0.09,-272.71,-272.77,-2,971,-2,21.5,7.8,-14.5,21.2,8.0,-14.3,5.73,1.95,-11.1,25.7
2015-03-14 01:37:00,0.0,1.94182,0.00035,405.860,0.042,0.2743,0.0021,139.999,45.000,34093.05457,1.94713,407.209,32.564,45.068,45.000,0.00,0.09,-272.71,-272.76,-1,970,-2,21.5,7.8,-14.4,21.2,8.1,-14.3,5.73,1.97,-11.1,25.6
2015-03-14 01:38:00,0.0,1.94206,0.00039,405.869,0.039,0.2746,0.0023,140.001,45.000,34092.67373,1.94731,407.221,32.567,45.068,45.000,0.00,0.09,-272.71,-272.76,-1,970,-2,21.5,7.8,-14.4,21.2,8.1,-14.2,5.73,1.95,-11.1,25.7
2015-03-14 01:39:00,0.0,1.94177,0.00047,405.826,0.035,0.2745,0.0022,139.999,45.000,34093.26696,1.94707,407.174,32.584,45.068,45.000,0.00,0.09,-272.71,-272.77,-2,970,-2,21.6,7.8,-14.4,21.2,8.1,-14.2,5.73,1.90,-11.1,25.7
2015-03-14 01:40:00,0.0,1.94118,0.00047,405.829,0.031,0.2742,0.0014,140.002,45.000,34097.33575,1.94648,407.178,32.606,45.068,45.000,0.00,0.09,-272.71,-272.77,-2,970,-2,21.5,7.8,-14.4,21.2,8.1,-14.2,5.73,1.88,-11.1,25.6
2015-03-14 01:41:00,0.0,1.94137,0.00030,405.855,0.039,0.2743,0.0020,140.000,45.000,34097.46925,1.94663,407.202,32.602,45.068,45.000,0.00,0.09,-272.70,-272.76,-2,970,-2,21.5,7.8,-14.4,21.2,8.1,-14.3,5.73,1.90,-11.1,25.6
2015-03-14 01:42:00,0.0,1.94122,0.00042,405.820,0.036,0.2742,0.0025,140.002,45.000,34098.20816,1.94650,407.171,32.571,45.068,45.000,0.00,0.09,-272.71,-272.77,-3,971,-2,21.5,7.8,-14.4,21.2,8.1,-14.2,5.73,1.94,-11.1,25.7
2015-03-14 01:43:00,0.0,1.94107,0.00035,405.820,0.025,0.2734,0.0015,140.002,45.000,34097.29668,1.94635,407.163,32.568,45.068,45.000,0.00,0.09,-272.71,-272.77,-2,971,-2,21.5,7.8,-14.4,21.2,8.1,-14.3,5.73,1.96,-11.1,25.6
2015-03-14 01:44:00,0.0,1.94122,0.00043,405.853,0.033,0.2729,0.0017,139.999,45.000,34097.74143,1.94645,407.195,32.563,45.068,45.000,0.00,0.09,-272.71,-272.76,-2,972,-2,21.5,7.8,-14.4,21.2,8.1,-14.3,5.73,1.96,-11.1,25.6
2015-03-14 01:45:00,0.0,1.94117,0.00033,405.841,0.037,0.2732,0.0015,140.003,45.000,34101.26315,1.94642,407.184,32.563,45.068,45.000,0.00,0.09,-272.71,-272.77,-2,971,-2,21.6,7.8,-14.4,21.2,8.1,-14.3,5.73,1.92,-11.1,25.6
2015-03-14 01:46:00,0.0,1.94044,0.00045,405.819,0.030,0.2729,0.0018,140.000,45.000,34101.66250,1.94576,407.160,32.564,45.068,45.000,0.00,0.09,-272.71,-272.77,-2,971,-2,21.6,7.8,-14.4,21.2,8.1,-14.3,5.73,1.90,-11.1,25.6